�������l�o���
Date,Time,MP-1(��Sv/h),MP-2(��Sv/h),MP-3(��Sv/h),MP-4(��Sv/h),MP-5(��Sv/h),MP-6(��Sv/h),MP-7(��Sv/h),����,����(m/s),���J
2021/04/05,00:00,0.170,0.152,0.245,0.233,0.233,0.133,0.084,��,2.6,��
2021/04/05,00:10,0.171,0.151,0.245,0.234,0.234,0.132,0.084,��,2.4,��
2021/04/05,00:20,0.169,0.151,0.247,0.232,0.234,0.133,0.083,���쐼,2.0,�L
2021/04/05,00:30,0.170,0.153,0.246,0.234,0.234,0.132,0.082,�쐼,2.3,�L
2021/04/05,00:40,0.170,0.152,0.246,0.232,0.233,0.134,0.083,��쐼,2.6,��
2021/04/05,00:50,0.170,0.151,0.246,0.233,0.234,0.133,0.082,��쐼,3.4,��
2021/04/05,01:00,0.169,0.151,0.247,0.234,0.233,0.132,0.082,�쐼,3.7,��
2021/04/05,01:10,0.169,0.151,0.245,0.232,0.233,0.133,0.082,�쐼,3.6,��
2021/04/05,01:20,0.170,0.152,0.245,0.233,0.232,0.132,0.082,�쐼,3.2,��
2021/04/05,01:30,0.169,0.151,0.245,0.231,0.234,0.132,0.082,��,1.4,��
2021/04/05,01:40,0.170,0.150,0.245,0.234,0.233,0.133,0.081,�k��,2.5,��
2021/04/05,01:50,0.169,0.150,0.246,0.232,0.234,0.133,0.082,�k��,3.4,��
2021/04/05,02:00,0.170,0.150,0.244,0.234,0.232,0.132,0.082,�k,2.9,��
2021/04/05,02:10,0.169,0.151,0.246,0.231,0.234,0.132,0.082,�k�k��,1.2,��
2021/04/05,02:20,0.170,0.150,0.245,0.234,0.231,0.133,0.082,�k,3.0,��
2021/04/05,02:30,0.169,0.151,0.246,0.231,0.233,0.132,0.082,�k�k��,2.6,��
2021/04/05,02:40,0.169,0.149,0.244,0.231,0.232,0.132,0.081,�k��,3.9,��
2021/04/05,02:50,0.168,0.151,0.245,0.233,0.233,0.132,0.083,�k�k��,0.9,��
2021/04/05,03:00,0.170,0.151,0.245,0.231,0.232,0.131,0.082,�k�k��,3.0,��
2021/04/05,03:10,0.169,0.150,0.245,0.232,0.233,0.132,0.082,�k�k��,2.3,��
2021/04/05,03:20,0.169,0.151,0.246,0.231,0.232,0.131,0.082,�k��,1.5,��
2021/04/05,03:30,0.169,0.150,0.244,0.233,0.234,0.131,0.082,�k�k��,1.5,��
2021/04/05,03:40,0.169,0.151,0.245,0.231,0.233,0.133,0.082,�k�k��,2.4,��
2021/04/05,03:50,0.168,0.151,0.247,0.234,0.234,0.132,0.081,�k�k��,3.5,��
2021/04/05,04:00,0.169,0.150,0.244,0.231,0.234,0.132,0.082,�k�k��,4.7,��
2021/04/05,04:10,0.169,0.150,0.245,0.233,0.233,0.132,0.081,�k,5.1,��
2021/04/05,04:20,0.169,0.151,0.246,0.231,0.233,0.132,0.082,�k,5.2,��
2021/04/05,04:30,0.169,0.151,0.243,0.231,0.232,0.131,0.082,�k�k��,5.2,�L
2021/04/05,04:40,0.169,0.149,0.244,0.232,0.233,0.133,0.081,�k,5.7,�L
2021/04/05,04:50,0.169,0.152,0.244,0.232,0.232,0.131,0.082,�k,8.2,�L
2021/04/05,05:00,0.169,0.152,0.246,0.233,0.234,0.133,0.082,�k,7.2,�L
2021/04/05,05:10,0.170,0.151,0.246,0.233,0.234,0.134,0.082,�k,9.5,��
2021/04/05,05:20,0.171,0.152,0.246,0.233,0.234,0.133,0.083,�k,8.1,�L
2021/04/05,05:30,0.169,0.152,0.246,0.232,0.234,0.133,0.082,�k,7.3,��
2021/04/05,05:40,0.170,0.152,0.246,0.233,0.233,0.133,0.083,�k,6.0,��
2021/04/05,05:50,0.169,0.151,0.246,0.234,0.233,0.133,0.082,�k�k��,4.2,�L
2021/04/05,06:00,0.170,0.151,0.246,0.232,0.233,0.132,0.082,�k,4.0,�L
2021/04/05,06:10,0.170,0.152,0.245,0.232,0.234,0.133,0.083,�k,5.3,�L
2021/04/05,06:20,0.170,0.152,0.246,0.233,0.234,0.132,0.082,�k,6.2,�L
2021/04/05,06:30,0.171,0.152,0.246,0.233,0.234,0.134,0.083,�k�k��,6.9,�L
2021/04/05,06:40,0.169,0.152,0.246,0.233,0.233,0.134,0.084,�k,6.9,�L
2021/04/05,06:50,0.172,0.153,0.247,0.233,0.234,0.134,0.084,�k,8.5,�L
2021/04/05,07:00,0.173,0.155,0.249,0.236,0.237,0.136,0.085,�k,7.1,�L
2021/04/05,07:10,0.174,0.157,0.249,0.238,0.236,0.139,0.087,�k,5.9,�L
2021/04/05,07:20,0.174,0.157,0.250,0.237,0.239,0.138,0.089,�k,7.4,�L
2021/04/05,07:30,0.172,0.156,0.249,0.236,0.236,0.138,0.088,�k,8.3,�L
2021/04/05,07:40,0.172,0.156,0.248,0.235,0.235,0.138,0.086,�k,8.1,�L
2021/04/05,07:50,0.173,0.154,0.248,0.236,0.237,0.137,0.086,�k,9.8,��
2021/04/05,08:00,0.172,0.153,0.249,0.233,0.235,0.135,0.085,�k,7.7,��
2021/04/05,08:10,0.171,0.153,0.246,0.234,0.235,0.136,0.084,�k,8.5,��
2021/04/05,08:20,0.172,0.153,0.246,0.234,0.234,0.135,0.085,�k�k��,9.0,�L
2021/04/05,08:30,0.172,0.153,0.247,0.232,0.234,0.135,0.085,�k,10.0,�L
2021/04/05,08:40,0.171,0.154,0.248,0.236,0.238,0.138,0.086,�k�k��,8.4,�L
2021/04/05,08:50,0.173,0.155,0.247,0.235,0.236,0.140,0.089,�k,8.1,�L
2021/04/05,09:00,0.172,0.156,0.248,0.235,0.236,0.141,0.090,�k�k��,9.2,�L
2021/04/05,09:10,0.173,0.156,0.249,0.236,0.239,0.139,0.090,�k�k��,8.8,�L
2021/04/05,09:20,0.172,0.156,0.249,0.236,0.237,0.139,0.088,�k�k��,8.7,��
2021/04/05,09:30,0.172,0.155,0.247,0.233,0.236,0.138,0.087,�k�k��,11.2,�L
2021/04/05,09:40,0.171,0.155,0.248,0.234,0.237,0.138,0.088,�k�k��,10.6,�L
2021/04/05,09:50,0.171,0.155,0.247,0.235,0.235,0.137,0.088,�k,9.2,�L
2021/04/05,10:00,0.172,0.155,0.247,0.234,0.236,0.136,0.087,�k�k��,8.8,�L
2021/04/05,10:10,0.172,0.156,0.249,0.234,0.237,0.137,0.085,�k�k��,8.5,�L
2021/04/05,10:20,0.172,0.155,0.247,0.234,0.236,0.137,0.087,�k,8.8,�L
2021/04/05,10:30,0.171,0.155,0.246,0.234,0.235,0.135,0.086,�k,9.6,�L
2021/04/05,10:40,0.171,0.155,0.246,0.235,0.236,0.136,0.086,�k,7.5,�L
2021/04/05,10:50,0.173,0.156,0.246,0.236,0.236,0.137,0.088,�k,6.4,�L
2021/04/05,11:00,0.173,0.158,0.247,0.236,0.237,0.140,0.089,�k,10.1,�L
2021/04/05,11:10,0.175,0.159,0.249,0.236,0.238,0.140,0.089,�k,8.1,�L
2021/04/05,11:20,0.174,0.159,0.249,0.236,0.238,0.141,0.089,�k,6.6,�L
2021/04/05,11:30,0.175,0.158,0.249,0.236,0.237,0.140,0.089,�k�k��,9.2,�L
2021/04/05,11:40,0.176,0.160,0.248,0.236,0.238,0.140,0.092,�k�k��,8.4,�L
2021/04/05,11:50,0.178,0.161,0.248,0.236,0.238,0.142,0.094,�k,8.1,�L
2021/04/05,12:00,0.178,0.161,0.248,0.236,0.237,0.141,0.092,�k�k��,7.9,�L
2021/04/05,12:10,0.179,0.158,0.248,0.235,0.235,0.138,0.093,�k�k��,8.3,�L
2021/04/05,12:20,0.178,0.159,0.245,0.233,0.235,0.139,0.093,�k�k��,10.3,�L
2021/04/05,12:30,0.177,0.157,0.247,0.235,0.235,0.136,0.093,�k,8.3,�L
2021/04/05,12:40,0.178,0.157,0.246,0.233,0.234,0.137,0.091,�k,7.6,�L
2021/04/05,12:50,0.176,0.155,0.245,0.232,0.235,0.135,0.090,�k,7.4,�L
2021/04/05,13:00,0.176,0.156,0.244,0.233,0.234,0.136,0.090,�k�k��,8.1,�L
2021/04/05,13:10,0.174,0.155,0.246,0.232,0.233,0.135,0.089,�k,7.9,�L
2021/04/05,13:20,0.175,0.155,0.244,0.232,0.234,0.134,0.089,�k,7.0,�L
2021/04/05,13:30,0.174,0.155,0.245,0.231,0.234,0.136,0.087,�k,6.6,�L
2021/04/05,13:40,0.172,0.154,0.245,0.232,0.233,0.135,0.086,�k,6.8,�L
2021/04/05,13:50,0.172,0.153,0.244,0.233,0.234,0.134,0.086,�k�k��,7.1,�L
2021/04/05,14:00,0.171,0.152,0.244,0.230,0.232,0.133,0.086,�k,6.6,�L
2021/04/05,14:10,0.170,0.153,0.244,0.232,0.233,0.133,0.085,�k,7.2,�L
2021/04/05,14:20,0.170,0.152,0.244,0.232,0.233,0.133,0.084,�k,6.8,�L
2021/04/05,14:30,0.169,0.151,0.243,0.231,0.232,0.133,0.085,�k,8.2,�L
2021/04/05,14:40,0.170,0.151,0.242,0.229,0.233,0.132,0.084,�k,5.6,�L
2021/04/05,14:50,0.168,0.151,0.243,0.230,0.232,0.132,0.083,�k,7.9,�L
2021/04/05,15:00,0.169,0.150,0.243,0.231,0.232,0.131,0.083,�k,7.0,�L
2021/04/05,15:10,0.169,0.150,0.243,0.231,0.232,0.131,0.083,�k,7.5,�L
2021/04/05,15:20,0.167,0.150,0.243,0.228,0.233,0.132,0.082,�k,6.8,�L
2021/04/05,15:30,0.167,0.149,0.242,0.230,0.232,0.132,0.082,�k,6.1,��
2021/04/05,15:40,0.168,0.150,0.243,0.229,0.232,0.131,0.081,�k,7.3,��
2021/04/05,15:50,0.167,0.150,0.242,0.228,0.232,0.132,0.081,�k�k��,6.8,��
2021/04/05,16:00,0.167,0.149,0.242,0.229,0.231,0.129,0.081,�k�k��,7.8,��
2021/04/05,16:10,0.167,0.148,0.242,0.228,0.231,0.129,0.082,�k,6.0,��
2021/04/05,16:20,0.166,0.149,0.241,0.228,0.231,0.130,0.081,�k,7.3,��
2021/04/05,16:30,0.166,0.148,0.240,0.228,0.231,0.131,0.080,�k,6.8,��
2021/04/05,16:40,0.167,0.148,0.241,0.228,0.232,0.131,0.081,�k,6.8,��
2021/04/05,16:50,0.166,0.149,0.243,0.228,0.231,0.130,0.080,�k�k��,7.0,��
2021/04/05,17:00,0.167,0.147,0.242,0.227,0.231,0.130,0.080,�k�k��,7.0,�L
2021/04/05,17:10,0.168,0.148,0.242,0.229,0.231,0.130,0.080,�k�k��,7.6,��
2021/04/05,17:20,0.166,0.148,0.241,0.229,0.230,0.130,0.081,�k�k��,7.4,�L
2021/04/05,17:30,0.167,0.148,0.241,0.228,0.230,0.130,0.081,�k�k��,7.3,��
2021/04/05,17:40,0.167,0.149,0.242,0.230,0.231,0.131,0.081,�k�k��,7.1,��
2021/04/05,17:50,0.166,0.149,0.241,0.229,0.231,0.130,0.080,�k�k��,7.3,��
2021/04/05,18:00,0.168,0.149,0.242,0.229,0.230,0.130,0.081,�k�k��,7.7,��
2021/04/05,18:10,0.167,0.148,0.241,0.228,0.231,0.129,0.080,�k�k��,7.8,��
2021/04/05,18:20,0.167,0.148,0.241,0.229,0.229,0.129,0.080,�k�k��,7.6,��
2021/04/05,18:30,0.166,0.148,0.242,0.229,0.231,0.130,0.080,�k�k��,8.4,��
2021/04/05,18:40,0.167,0.148,0.242,0.229,0.232,0.130,0.081,�k�k��,7.9,��
2021/04/05,18:50,0.167,0.149,0.241,0.228,0.230,0.130,0.081,�k�k��,8.1,��
2021/04/05,19:00,0.167,0.149,0.241,0.229,0.231,0.130,0.080,�k�k��,7.3,�L
2021/04/05,19:10,0.167,0.148,0.242,0.229,0.230,0.130,0.080,�k�k��,7.3,�L
2021/04/05,19:20,0.166,0.148,0.241,0.229,0.231,0.130,0.081,�k�k��,6.7,�L
2021/04/05,19:30,0.167,0.148,0.240,0.230,0.230,0.131,0.081,�k�k��,6.3,�L
2021/04/05,19:40,0.168,0.148,0.242,0.229,0.230,0.130,0.080,�k�k��,6.4,��
2021/04/05,19:50,0.167,0.148,0.242,0.228,0.231,0.130,0.080,�k�k��,8.1,��
2021/04/05,20:00,0.167,0.148,0.241,0.228,0.231,0.130,0.081,�k�k��,7.5,�L
2021/04/05,20:10,0.166,0.147,0.241,0.228,0.231,0.130,0.080,�k�k��,7.3,��
2021/04/05,20:20,0.166,0.148,0.241,0.229,0.230,0.130,0.081,�k�k��,7.6,��
2021/04/05,20:30,0.168,0.148,0.243,0.228,0.230,0.130,0.081,�k�k��,6.7,��
2021/04/05,20:40,0.167,0.149,0.242,0.229,0.231,0.130,0.081,�k�k��,5.0,��
2021/04/05,20:50,0.167,0.148,0.241,0.228,0.231,0.130,0.080,�k�k��,6.5,��
2021/04/05,21:00,0.167,0.148,0.241,0.230,0.231,0.130,0.080,�k�k��,6.5,��
2021/04/05,21:10,0.168,0.149,0.241,0.229,0.231,0.130,0.081,�k�k��,6.4,��
2021/04/05,21:20,0.167,0.147,0.243,0.228,0.231,0.129,0.080,�k�k��,6.5,��
2021/04/05,21:30,0.167,0.149,0.242,0.227,0.232,0.131,0.080,�k�k��,6.3,��
2021/04/05,21:40,0.168,0.148,0.242,0.229,0.231,0.130,0.080,�k,5.9,��
2021/04/05,21:50,0.167,0.149,0.241,0.229,0.232,0.130,0.080,�k,8.1,��
2021/04/05,22:00,0.166,0.148,0.241,0.229,0.231,0.130,0.081,�k,7.9,��
2021/04/05,22:10,0.167,0.149,0.240,0.228,0.230,0.130,0.081,�k,8.1,��
2021/04/05,22:20,0.167,0.148,0.242,0.229,0.232,0.129,0.080,�k,6.6,��
2021/04/05,22:30,0.167,0.148,0.242,0.228,0.230,0.131,0.081,�k,7.8,��
2021/04/05,22:40,0.166,0.148,0.242,0.229,0.230,0.130,0.081,�k,6.7,��
2021/04/05,22:50,0.168,0.149,0.242,0.230,0.231,0.131,0.080,�k,7.0,��
2021/04/05,23:00,0.168,0.148,0.242,0.228,0.230,0.130,0.080,�k,7.6,��
2021/04/05,23:10,0.166,0.148,0.242,0.229,0.230,0.130,0.081,�k�k��,5.9,��
2021/04/05,23:20,0.168,0.149,0.242,0.229,0.231,0.130,0.080,�k�k��,6.4,��
2021/04/05,23:30,0.167,0.148,0.242,0.230,0.232,0.129,0.080,�k,5.8,��
2021/04/05,23:40,0.166,0.149,0.242,0.228,0.230,0.129,0.080,�k�k��,7.4,��
2021/04/05,23:50,0.168,0.149,0.242,0.228,0.231,0.130,0.081,�k��,6.5,��
